Regional Weather Roundup
Issued by NWS Newport/Morehead, NC

Current Version | Previous Version | Text Only | Print | Product List | Glossary On
Versions: 1 2 3 4 5 6 7 8 9 10 11 12 13 14 15 16 17 18 19 20 21 22 23 24 25 26 27 28 29 30 31 32 33 34 35 36 37 38 39 40 41 42 43 44 45 46 47 48 49 50
000 ASUS42 KMHX 221425 RWRMHX WEATHER ROUNDUP FOR EASTERN NORTH CAROLINA NATIONAL WEATHER SERVICE NEWPORT/MOREHEAD CITY NC 900 AM EST SUN JAN 22 2017 NOTE: "FAIR" INDICATES FEW OR NO CLOUDS BELOW 12,000 FEET WITH NO SIGNIFICANT WEATHER AND/OR OBSTRUCTIONS TO VISIBILITY NCZ015>017-031-032-045>047-102-103-221500- NORTH COAST CITY SKY/WX TMP DP RH WIND PRES REMARKS EDENTON FOG 55 55 100 CALM 29.68R VSB 1/2 ELIZABETH CITY CLOUDY 53 52 96 SW8 29.67R KITTY HAWK NOT AVBL MANTEO FOG 55 55 100 NW7 29.66R VSB 1 $$ NCZ045>047-081-094-103-104-221500- CENTRAL COAST CITY SKY/WX TMP DP RH WIND PRES REMARKS FRISCO PTSUNNY 59 56 89 W8 29.68R FOG $$ NCZ095-097-098-100-101-221500- SOUTHERN COAST CITY SKY/WX TMP DP RH WIND PRES REMARKS BEAUFORT RAIN 59 57 93 W10 29.71R CEDAR ISLAND NOT AVBL JACKSONVILLE LGT RAIN 59 59 100 W7 29.69S PINEY ISLAND CLOUDY N/A N/A N/A SW10 29.72R WILMINGTON RAIN 59 59 100 SW6 29.71F FOG $$ NCZ011>013-027>030-043-044-078>080-089-090>093-098-221500- COASTAL PLAIN CITY SKY/WX TMP DP RH WIND PRES REMARKS AHOSKIE N/A 50 50 99 CALM 29.69R FOG CLINTON LGT RAIN 59 59 100 W3 29.70F ELIZABETHTOWN LGT RAIN 59 59 100 CALM 29.70S GOLDSBORO LGT RAIN 59 59 100 SW7 29.67F GREENVILLE CLOUDY 57 55 94 CALM 29.72R FOG HAVELOCK RAIN 59 57 93 SW5 29.72R KENANSVILLE LGT RAIN 59 59 100 W8 29.70S KINSTON CLOUDY 61 59 94 SW8G20 29.69R FOG NEW BERN LGT RAIN 60 58 92 SW5 29.70F RICHLANDS LGT RAIN 59 58 96 SW8 29.70S ROCKY MOUNT CLOUDY 53 53 100 W6 29.69R WASHINGTON CLOUDY 59 59 99 W6 N/A FOG WHITEVILLE LGT RAIN 59 58 97 CALM 29.70F $$ AMZ130-135-150-152-154-156-158-170-250-252-270-ANZ085-086-088-633-658-670-221500- MARINE OBSERVATIONS STATION/POSITION TIME TEMP WIND PRES WAVE SWELL AIR SEA DIR/SP/G HT/PER HT/PER (UTC) (F) (DEG/KT/KT) (MB) (FT/S) (FT/S) CHESAPEAKE LIGHT NOT AVBL 64 E VA BEACH 1350 56 57 240/ 10/ 14 1002.5 5/ 6 5/ 6 DUCK 1400 54 45 270/ 7/ 10 1003.5 2 E DUCK 1400 47 N/A 4/11 2/11 OREGON INLET 1400 52 50 200/ 11/ 12 1004.5 13E OREGON INLT NOT AVBL HATTERAS CG 1400 59 54 240/ 10/ 14 1004.9 DIAMOND BUOY 1350 65 73 260/ 17/ 21 1004.7 6/ 5 2/12 CAPE LOOKOUT 1400 59 260/ 10/ 12 1005.6 BEAUFORT LAB 1400 58 52 240/ 5/ 11 1005.0 30 SE NEW RVR IN 1408 59 64 280/ 14/ 16 1006.2 30 SE NEW RVR IN 1413 64 N/A 5/ 6 2/13 27 SE WRIGHTSVLE 1408 61 67 280/ 8/ 12 1005.2 5 SE WRIGHTSVLE 1408 56 270/ 6/ 8 1005.6 225 S CAPE HAT 1350 72 71 220/ 17/ 19 1008.4 7/ 7 3/12 41 SE CHARLESTON 1350 65 68 20/ 2/ 4 1003.4 4/ 6 3/ 6 $$

USA.gov is the U.S. government's official web portal to all federal, state and local government web resources and services.